FAB2019 SBFI-SBCA

Flight info

Callsign FAB2019
Flight time N/A
Altitude FL090
Route SBFI KAMIL SBCA
Aircraft E120/M-VD/A

Departure

Time 2026-04-26 18:10
Airport Cataratas International Airport (SBFI)

Arrival

Time N/A
Airport Coronel Adalberto Mendes da Silva Airport (SBCA)
Time Latitude Longitude Altitude Speed Heading
2026-04-26 17:59 -25.59810 -54.48742 791 ft 0 kts 220°
2026-04-26 18:05 -25.59810 -54.48743 791 ft 0 kts 220°
2026-04-26 18:06 -25.59805 -54.48737 791 ft 2 kts 220°
2026-04-26 18:06 -25.59791 -54.48769 791 ft 12 kts 348°
2026-04-26 18:06 -25.59711 -54.48797 791 ft 12 kts 325°
2026-04-26 18:07 -25.59653 -54.48865 791 ft 12 kts 311°
2026-04-26 18:07 -25.59597 -54.48934 791 ft 12 kts 311°
2026-04-26 18:07 -25.59535 -54.48961 791 ft 12 kts 33°
2026-04-26 18:07 -25.59521 -54.48949 791 ft 0 kts 41°
2026-04-26 18:08 -25.59504 -54.48934 791 ft 17 kts 36°
2026-04-26 18:08 -25.59385 -54.48996 791 ft 40 kts 306°
2026-04-26 18:09 -25.59139 -54.49313 791 ft 63 kts 310°
2026-04-26 18:09 -25.59029 -54.49449 790 ft 0 kts 137°
2026-04-26 18:09 -25.59037 -54.49438 791 ft 7 kts 130°
2026-04-26 18:09 -25.59038 -54.49436 791 ft 0 kts 130°
2026-04-26 18:10 -25.59042 -54.49431 791 ft 12 kts 130°
2026-04-26 18:10 -25.59412 -54.48989 796 ft 144 kts 134°
2026-04-26 18:10 -25.60264 -54.47982 1083 ft 200 kts 134°
2026-04-26 18:10 -25.61243 -54.46763 1568 ft 227 kts 127°
2026-04-26 18:11 -25.61795 -54.45093 1957 ft 239 kts 97°
2026-04-26 18:11 -25.61648 -54.43241 2388 ft 246 kts 79°
2026-04-26 18:11 -25.61234 -54.41381 2784 ft 253 kts 77°
2026-04-26 18:11 -25.60813 -54.39478 3157 ft 255 kts 78°
2026-04-26 18:12 -25.60466 -54.37560 3520 ft 253 kts 80°
2026-04-26 18:12 -25.60198 -54.35650 3893 ft 251 kts 82°
2026-04-26 18:12 -25.59992 -54.33733 4257 ft 252 kts 84°
2026-04-26 18:12 -25.59841 -54.31811 4648 ft 251 kts 86°
2026-04-26 18:13 -25.59729 -54.29873 5001 ft 253 kts 87°
2026-04-26 18:13 -25.59645 -54.27930 5387 ft 253 kts 88°
2026-04-26 18:13 -25.59577 -54.25976 5761 ft 256 kts 88°
2026-04-26 18:13 -25.59540 -54.24663 6001 ft 257 kts 88°
2026-04-26 18:14 -25.59478 -54.22018 6491 ft 259 kts 88°
2026-04-26 18:14 -25.59441 -54.20020 6861 ft 261 kts 89°
2026-04-26 18:14 -25.59406 -54.18007 7242 ft 263 kts 88°
2026-04-26 18:14 -25.59373 -54.15982 7613 ft 264 kts 89°
2026-04-26 18:15 -25.59342 -54.13957 7973 ft 263 kts 89°
2026-04-26 18:15 -25.59310 -54.11935 8348 ft 263 kts 89°
2026-04-26 18:15 -25.59280 -54.09911 8729 ft 264 kts 88°
2026-04-26 18:15 -25.59249 -54.07852 8909 ft 271 kts 88°
2026-04-26 18:16 -25.59217 -54.05767 8977 ft 271 kts 88°
2026-04-26 18:16 -25.59154 -54.01608 8990 ft 271 kts 88°
2026-04-26 18:16 -25.59121 -53.99532 9001 ft 270 kts 88°
2026-04-26 18:17 -25.59085 -53.97455 8999 ft 270 kts 88°
2026-04-26 18:17 -25.59050 -53.95383 8991 ft 270 kts 88°
2026-04-26 18:17 -25.59014 -53.93309 8998 ft 270 kts 88°
2026-04-26 18:17 -25.58978 -53.91236 8997 ft 270 kts 88°
2026-04-26 18:18 -25.58943 -53.89164 8992 ft 270 kts 88°
2026-04-26 18:18 -25.58909 -53.87093 9000 ft 269 kts 88°
2026-04-26 18:18 -25.58878 -53.85020 8997 ft 270 kts 88°
2026-04-26 18:18 -25.58846 -53.82952 8998 ft 268 kts 88°
2026-04-26 18:19 -25.58811 -53.80908 8992 ft 264 kts 88°
2026-04-26 18:19 -25.58775 -53.78886 9002 ft 262 kts 88°
2026-04-26 18:19 -25.58720 -53.77671 8994 ft 261 kts 82°
2026-04-26 18:20 -25.58451 -53.76581 8916 ft 237 kts 61°
2026-04-26 18:20 -25.57424 -53.75245 8995 ft 227 kts 29°
2026-04-26 18:20 -25.55977 -53.74560 9059 ft 229 kts
2026-04-26 18:20 -25.54935 -53.74260 9030 ft 234 kts
2026-04-26 18:21 -25.52814 -53.73695 8998 ft 239 kts
2026-04-26 18:21 -25.51209 -53.73209 9006 ft 242 kts 10°
2026-04-26 18:21 -25.49597 -53.72656 9004 ft 244 kts 12°
2026-04-26 18:21 -25.47989 -53.72047 9009 ft 246 kts 13°
2026-04-26 18:22 -25.46381 -53.71390 9003 ft 247 kts 15°
2026-04-26 18:22 -25.44778 -53.70703 8998 ft 248 kts 15°
2026-04-26 18:22 -25.43179 -53.69992 9002 ft 249 kts 16°
2026-04-26 18:22 -25.41577 -53.69270 8998 ft 249 kts 16°
2026-04-26 18:23 -25.39978 -53.68546 9009 ft 249 kts 16°
2026-04-26 18:23 -25.38375 -53.67815 8999 ft 250 kts 17°
2026-04-26 18:23 -25.36776 -53.67081 9005 ft 249 kts 17°
2026-04-26 18:23 -25.35170 -53.66343 8900 ft 253 kts 17°
2026-04-26 18:24 -25.33547 -53.65594 8668 ft 252 kts 17°
2026-04-26 18:24 -25.31948 -53.64850 8407 ft 247 kts 17°
2026-04-26 18:24 -25.30395 -53.64124 8158 ft 239 kts 17°
2026-04-26 18:24 -25.28885 -53.63420 7895 ft 233 kts 17°
2026-04-26 18:25 -25.27407 -53.62736 7640 ft 229 kts 17°
2026-04-26 18:25 -25.25950 -53.62064 7381 ft 226 kts 17°
2026-04-26 18:25 -25.24509 -53.61399 7124 ft 224 kts 17°
2026-04-26 18:25 -25.23081 -53.60739 6865 ft 222 kts 17°
2026-04-26 18:26 -25.21664 -53.60084 6608 ft 221 kts 17°
2026-04-26 18:26 -25.20254 -53.59436 6346 ft 220 kts 17°
2026-04-26 18:26 -25.18847 -53.58789 6090 ft 219 kts 18°
2026-04-26 18:26 -25.17441 -53.58146 5848 ft 219 kts 18°
2026-04-26 18:27 -25.16041 -53.57503 5585 ft 219 kts 18°
2026-04-26 18:27 -25.14638 -53.56860 5329 ft 219 kts 18°
2026-04-26 18:27 -25.13241 -53.56225 5138 ft 216 kts 18°
2026-04-26 18:27 -25.11864 -53.55596 4965 ft 213 kts 18°
2026-04-26 18:28 -25.10500 -53.54984 4798 ft 211 kts 18°
2026-04-26 18:28 -25.09149 -53.54381 4629 ft 210 kts 18°
2026-04-26 18:28 -25.07798 -53.53781 4458 ft 209 kts 18°
2026-04-26 18:28 -25.06457 -53.53186 4286 ft 207 kts 18°
2026-04-26 18:29 -25.05124 -53.52600 4108 ft 207 kts 18°
2026-04-26 18:29 -25.03784 -53.52018 3942 ft 207 kts 18°
2026-04-26 18:29 -25.02444 -53.51441 3760 ft 207 kts 18°
2026-04-26 18:29 -25.01103 -53.50866 3603 ft 206 kts 18°
2026-04-26 18:30 -24.99776 -53.50302 3519 ft 203 kts 18°
2026-04-26 18:30 -24.98483 -53.49746 3493 ft 197 kts 18°
2026-04-26 18:30 -24.97226 -53.49202 3487 ft 192 kts 18°
2026-04-26 18:30 -24.95977 -53.48780 3465 ft 185 kts
2026-04-26 18:31 -24.94796 -53.49102 3497 ft 169 kts 325°
2026-04-26 18:31 -24.93870 -53.49846 3506 ft 166 kts 316°
2026-04-26 18:31 -24.93000 -53.50665 3500 ft 164 kts 314°
2026-04-26 18:31 -24.92164 -53.51507 3496 ft 162 kts 307°
2026-04-26 18:32 -24.91790 -53.52623 3469 ft 155 kts 266°
2026-04-26 18:32 -24.92218 -53.53656 3505 ft 154 kts 226°
2026-04-26 18:32 -24.93224 -53.54098 3516 ft 165 kts 187°
2026-04-26 18:32 -24.94368 -53.53978 3550 ft 169 kts 175°
2026-04-26 18:33 -24.95530 -53.53706 3513 ft 174 kts 166°
2026-04-26 18:33 -24.96524 -53.52932 3538 ft 175 kts 139°
2026-04-26 18:33 -24.97365 -53.51953 3523 ft 180 kts 139°
2026-04-26 18:33 -24.98246 -53.50985 3524 ft 178 kts 140°
2026-04-26 18:34 -24.99124 -53.50031 3504 ft 178 kts 140°
2026-04-26 18:34 -24.99997 -53.49080 3491 ft 176 kts 140°
2026-04-26 18:34 -25.00863 -53.48139 3512 ft 176 kts 140°
2026-04-26 18:34 -25.01791 -53.47142 3754 ft 201 kts 140°
2026-04-26 18:35 -25.02685 -53.45838 3961 ft 227 kts 117°
2026-04-26 18:35 -25.02919 -53.44112 4157 ft 235 kts 85°
2026-04-26 18:35 -25.02341 -53.42425 4375 ft 241 kts 54°
2026-04-26 18:35 -25.01087 -53.41234 4572 ft 240 kts 24°
2026-04-26 18:36 -24.99486 -53.40822 4789 ft 237 kts 359°
2026-04-26 18:36 -24.97908 -53.41188 4969 ft 231 kts 330°
2026-04-26 18:36 -24.96654 -53.42238 5148 ft 229 kts 306°
2026-04-26 18:36 -24.96038 -53.43797 5343 ft 223 kts 278°
2026-04-26 18:37 -24.96236 -53.45472 5544 ft 224 kts 249°
2026-04-26 18:37 -24.97044 -53.46946 5760 ft 226 kts 239°
2026-04-26 18:37 -24.97760 -53.48480 5952 ft 225 kts 249°
2026-04-26 18:37 -24.97818 -53.48630 5972 ft 225 kts 249°
2026-04-26 18:38 -24.97935 -53.48943 6013 ft 225 kts 249°
2026-04-26 18:38 -24.98490 -53.50549 6200 ft 225 kts 251°
2026-04-26 18:38 -24.99028 -53.52168 6383 ft 225 kts 252°
2026-04-26 18:38 -24.99575 -53.53781 6568 ft 225 kts 251°
2026-04-26 18:39 -25.00133 -53.55394 6746 ft 226 kts 251°
2026-04-26 18:39 -25.00704 -53.57005 6921 ft 226 kts 251°
2026-04-26 18:39 -25.01285 -53.58612 7089 ft 226 kts 250°
2026-04-26 18:39 -25.01872 -53.60220 7271 ft 226 kts 250°
2026-04-26 18:40 -25.02464 -53.61825 7455 ft 227 kts 250°
2026-04-26 18:40 -25.03060 -53.63430 7638 ft 227 kts 250°
2026-04-26 18:40 -25.03657 -53.65039 7814 ft 228 kts 250°
2026-04-26 18:40 -25.04258 -53.66657 7949 ft 229 kts 250°
2026-04-26 18:41 -25.04863 -53.68284 7994 ft 230 kts 250°
2026-04-26 18:41 -25.05471 -53.69917 7985 ft 231 kts 250°
2026-04-26 18:41 -25.06082 -53.71546 8000 ft 230 kts 250°
2026-04-26 18:41 -25.06690 -53.73173 7997 ft 230 kts 250°
2026-04-26 18:42 -25.07295 -53.74799 7999 ft 229 kts 250°
2026-04-26 18:42 -25.07898 -53.76417 8000 ft 230 kts 250°
2026-04-26 18:42 -25.08499 -53.78036 8006 ft 229 kts 250°
2026-04-26 18:42 -25.09110 -53.79675 8007 ft 229 kts 250°
2026-04-26 18:43 -25.09716 -53.81297 8003 ft 229 kts 250°
2026-04-26 18:43 -25.10324 -53.82917 7993 ft 229 kts 250°
2026-04-26 18:43 -25.10934 -53.84537 8002 ft 230 kts 250°
2026-04-26 18:43 -25.11541 -53.86160 7996 ft 229 kts 250°
2026-04-26 18:44 -25.12145 -53.87783 7995 ft 229 kts 250°
2026-04-26 18:44 -25.12746 -53.89406 8005 ft 229 kts 250°
2026-04-26 18:44 -25.13351 -53.91030 7996 ft 229 kts 251°
2026-04-26 18:44 -25.13953 -53.92654 8000 ft 229 kts 250°
2026-04-26 18:45 -25.14557 -53.94277 7995 ft 229 kts 250°
2026-04-26 18:45 -25.15162 -53.95896 8002 ft 229 kts 250°
2026-04-26 18:45 -25.15753 -53.97526 8007 ft 229 kts 250°
2026-04-26 18:45 -25.16351 -53.99152 8014 ft 229 kts 250°
2026-04-26 18:46 -25.16956 -54.00778 8009 ft 229 kts 250°
2026-04-26 18:46 -25.17561 -54.02404 8001 ft 229 kts 250°
2026-04-26 18:46 -25.18164 -54.04027 7990 ft 229 kts 250°
2026-04-26 18:46 -25.18765 -54.05647 8006 ft 229 kts 250°
2026-04-26 18:47 -25.19366 -54.07274 7998 ft 230 kts 250°
2026-04-26 18:47 -25.19965 -54.08901 8002 ft 229 kts 250°
2026-04-26 18:47 -25.20567 -54.10520 8001 ft 229 kts 250°
2026-04-26 18:47 -25.21168 -54.12148 7996 ft 230 kts 251°
2026-04-26 18:48 -25.21768 -54.13775 7996 ft 229 kts 250°
2026-04-26 18:48 -25.22366 -54.15401 7998 ft 229 kts 250°
2026-04-26 18:48 -25.22963 -54.17027 8000 ft 229 kts 251°
2026-04-26 18:48 -25.23562 -54.18657 8000 ft 229 kts 250°
2026-04-26 18:49 -25.24160 -54.20283 8005 ft 229 kts 250°
2026-04-26 18:49 -25.24757 -54.21909 8008 ft 229 kts 250°
2026-04-26 18:49 -25.25356 -54.23535 7996 ft 229 kts 250°
2026-04-26 18:49 -25.25954 -54.25161 8004 ft 229 kts 250°
2026-04-26 18:50 -25.26546 -54.26789 7994 ft 229 kts 250°
2026-04-26 18:50 -25.27139 -54.28418 8002 ft 229 kts 251°
2026-04-26 18:50 -25.27736 -54.30049 8007 ft 229 kts 250°
2026-04-26 18:50 -25.28331 -54.31680 7924 ft 232 kts 250°
2026-04-26 18:51 -25.28935 -54.33336 7660 ft 234 kts 250°
2026-04-26 18:51 -25.29536 -54.34986 7290 ft 228 kts 250°
2026-04-26 18:51 -25.30113 -54.36585 6901 ft 221 kts 250°
2026-04-26 18:51 -25.30670 -54.38141 6525 ft 216 kts 251°
2026-04-26 18:52 -25.31218 -54.39670 6141 ft 213 kts 250°
2026-04-26 18:52 -25.31753 -54.41180 5763 ft 211 kts 250°
2026-04-26 18:52 -25.32275 -54.42681 5401 ft 209 kts 250°
2026-04-26 18:52 -25.32785 -54.44179 5034 ft 208 kts 250°
2026-04-26 18:53 -25.33290 -54.45673 4655 ft 208 kts 250°
2026-04-26 18:53 -25.33784 -54.47170 4295 ft 208 kts 251°
2026-04-26 18:53 -25.34264 -54.48655 4088 ft 201 kts 251°
2026-04-26 18:53 -25.34718 -54.50074 4002 ft 191 kts 251°
2026-04-26 18:54 -25.35149 -54.51422 3983 ft 182 kts 250°
2026-04-26 18:54 -25.35558 -54.52706 3982 ft 173 kts 250°
2026-04-26 18:54 -25.35895 -54.53757 3985 ft 168 kts 250°
2026-04-26 18:54 -25.36093 -54.54368 3990 ft 165 kts 251°
2026-04-26 18:55 -25.36470 -54.55543 3992 ft 161 kts 251°
2026-04-26 18:55 -25.36841 -54.56701 3975 ft 159 kts 251°
2026-04-26 18:55 -25.37204 -54.57838 3969 ft 157 kts 251°
2026-04-26 18:55 -25.37647 -54.58971 3761 ft 166 kts 237°
2026-04-26 18:56 -25.38472 -54.59903 3619 ft 171 kts 226°
2026-04-26 18:56 -25.39344 -54.60827 3455 ft 176 kts 225°
2026-04-26 18:56 -25.40229 -54.61775 3271 ft 179 kts 225°
2026-04-26 18:56 -25.41113 -54.62752 3097 ft 181 kts 225°
2026-04-26 18:57 -25.41993 -54.63759 2934 ft 183 kts 224°
2026-04-26 18:57 -25.42672 -54.64305 2819 ft 182 kts 204°
2026-04-26 18:57 -25.44277 -54.64369 2820 ft 172 kts 169°
2026-04-26 18:57 -25.45421 -54.64054 2802 ft 168 kts 165°
2026-04-26 18:58 -25.46507 -54.63611 2781 ft 167 kts 149°
2026-04-26 18:58 -25.47433 -54.62878 2802 ft 163 kts 149°
2026-04-26 18:58 -25.48431 -54.62301 2805 ft 162 kts 153°
2026-04-26 18:58 -25.49303 -54.61742 2953 ft 131 kts 149°
2026-04-26 18:59 -25.50090 -54.61030 2871 ft 150 kts 140°
2026-04-26 18:59 -25.50797 -54.60208 2789 ft 147 kts 133°
2026-04-26 18:59 -25.51409 -54.59351 2766 ft 137 kts 129°
2026-04-26 18:59 -25.51958 -54.58510 2740 ft 133 kts 128°
2026-04-26 19:00 -25.52493 -54.57703 2754 ft 129 kts 129°
2026-04-26 19:00 -25.53041 -54.56917 2732 ft 128 kts 131°
2026-04-26 19:00 -25.53610 -54.56174 2670 ft 126 kts 133°
2026-04-26 19:00 -25.54202 -54.55458 2557 ft 125 kts 134°
2026-04-26 19:01 -25.54788 -54.54759 2485 ft 124 kts 134°
2026-04-26 19:01 -25.55367 -54.54051 2383 ft 124 kts 133°
2026-04-26 19:01 -25.55934 -54.53339 2296 ft 123 kts 133°
2026-04-26 19:01 -25.56500 -54.52622 2199 ft 124 kts 133°
2026-04-26 19:02 -25.57069 -54.51907 2084 ft 124 kts 133°
2026-04-26 19:02 -25.57646 -54.51189 1984 ft 129 kts 134°
2026-04-26 19:02 -25.58312 -54.50355 2108 ft 157 kts 133°
2026-04-26 19:02 -25.58866 -54.49705 2079 ft 204 kts 134°
2026-04-26 19:03 -25.60224 -54.48040 1760 ft 217 kts 132°
2026-04-26 19:03 -25.61217 -54.46812 1506 ft 211 kts 132°
2026-04-26 19:03 -25.62179 -54.45622 1277 ft 205 kts 133°
2026-04-26 19:03 -25.62930 -54.44297 939 ft 206 kts 109°
2026-04-26 19:04 -25.63075 -54.42728 742 ft 199 kts 94°